Time,TemperatureF,DewpointF,PressureIn,WindDirection,WindDirectionDegrees,WindSpeedMPH,WindSpeedGustMPH,Humidity,HourlyPrecipIn,Conditions,Clouds,dailyrainin,SoftwareType,DateUTC
2012-11-11 00:00:00,29.5,28.2,30.17,East,90,0.0,0.0,95,0.00,,,0.00,WUHU21623XXSP,2012-11-11 08:00:00,
2012-11-11 00:05:00,29.5,28.2,30.17,East,90,0.0,0.0,95,0.00,,,0.00,WUHU21623XXSP,2012-11-11 08:05:00,
2012-11-11 00:10:00,29.5,28.2,30.17,East,90,0.0,0.0,95,0.00,,,0.00,WUHU21623XXSP,2012-11-11 08:10:00,
2012-11-11 00:15:00,29.5,28.2,30.17,East,90,0.0,0.0,95,0.00,,,0.00,WUHU21623XXSP,2012-11-11 08:15:00,
2012-11-11 00:20:00,29.5,28.2,30.18,East,90,0.0,0.0,95,0.00,,,0.00,WUHU21623XXSP,2012-11-11 08:20:00,
2012-11-11 00:25:00,29.5,28.2,30.18,NNE,22,0.0,0.0,95,0.00,,,0.00,WUHU21623XXSP,2012-11-11 08:25:00,
2012-11-11 00:30:00,29.5,28.2,30.17,NNE,22,0.0,0.0,95,0.00,,,0.00,WUHU21623XXSP,2012-11-11 08:30:00,
2012-11-11 00:35:00,29.7,28.4,30.18,NNE,22,0.0,0.0,95,0.00,,,0.00,WUHU21623XXSP,2012-11-11 08:35:00,
2012-11-11 00:40:00,29.7,28.4,30.18,NNE,22,0.0,0.0,95,0.00,,,0.00,WUHU21623XXSP,2012-11-11 08:40:00,
2012-11-11 00:45:00,29.7,28.4,30.18,NNE,22,0.0,0.0,95,0.00,,,0.00,WUHU21623XXSP,2012-11-11 08:45:00,
2012-11-11 00:50:00,29.5,28.2,30.18,NNE,22,0.0,0.0,95,0.00,,,0.00,WUHU21623XXSP,2012-11-11 08:50:00,
2012-11-11 00:55:00,29.5,28.2,30.18,NNE,22,0.0,0.0,95,0.00,,,0.00,WUHU21623XXSP,2012-11-11 08:55:00,
2012-11-11 01:00:00,29.7,28.4,30.18,NNE,22,0.0,0.0,95,0.00,,,0.00,WUHU21623XXSP,2012-11-11 09:00:00,
2012-11-11 01:05:00,29.7,28.4,30.18,NNE,22,0.0,0.0,95,0.00,,,0.00,WUHU21623XXSP,2012-11-11 09:05:00,
2012-11-11 01:10:00,29.5,28.2,30.18,NNE,22,0.0,0.0,95,0.00,,,0.00,WUHU21623XXSP,2012-11-11 09:10:00,
2012-11-11 01:15:00,29.5,28.2,30.18,NNE,22,0.0,0.0,95,0.00,,,0.00,WUHU21623XXSP,2012-11-11 09:15:00,
2012-11-11 01:20:00,29.5,28.2,30.18,NNE,22,0.0,0.0,95,0.00,,,0.00,WUHU21623XXSP,2012-11-11 09:20:00,
2012-11-11 01:25:00,29.5,28.2,30.18,NNE,22,0.0,0.0,95,0.00,,,0.00,WUHU21623XXSP,2012-11-11 09:25:00,
2012-11-11 01:30:00,29.5,28.2,30.19,NNE,22,0.0,0.0,95,0.00,,,0.00,WUHU21623XXSP,2012-11-11 09:30:00,
2012-11-11 01:35:00,29.7,28.2,30.19,NNE,22,0.0,0.0,95,0.00,,,0.00,WUHU21623XXSP,2012-11-11 09:35:00,
2012-11-11 01:40:00,29.5,28.2,30.19,NNE,22,0.0,0.0,95,0.00,,,0.00,WUHU21623XXSP,2012-11-11 09:40:00,
2012-11-11 01:45:00,29.5,28.2,30.19,NNE,22,0.0,0.0,95,0.00,,,0.00,WUHU21623XXSP,2012-11-11 09:45:00,
2012-11-11 01:50:00,29.5,28.2,30.19,NNE,22,0.0,0.0,95,0.00,,,0.00,WUHU21623XXSP,2012-11-11 09:50:00,
2012-11-11 01:55:00,29.5,28.2,30.19,NNE,22,0.0,0.0,95,0.00,,,0.00,WUHU21623XXSP,2012-11-11 09:55:00,
2012-11-11 02:00:00,29.5,28.2,30.19,NNE,22,0.0,0.0,95,0.00,,,0.00,WUHU21623XXSP,2012-11-11 10:00:00,
2012-11-11 02:05:00,29.5,28.2,30.19,NNE,22,0.0,0.0,95,0.00,,,0.00,WUHU21623XXSP,2012-11-11 10:05:00,
2012-11-11 02:10:00,29.5,28.2,30.19,NNE,22,0.0,0.0,95,0.00,,,0.00,WUHU21623XXSP,2012-11-11 10:10:00,
2012-11-11 02:15:00,29.5,28.2,30.19,NNE,22,0.0,0.0,95,0.00,,,0.00,WUHU21623XXSP,2012-11-11 10:15:00,
2012-11-11 02:20:00,29.5,28.2,30.19,NNE,22,0.0,0.0,95,0.00,,,0.00,WUHU21623XXSP,2012-11-11 10:20:00,
2012-11-11 02:25:00,29.7,28.4,30.19,East,90,0.0,0.0,95,0.00,,,0.00,WUHU21623XXSP,2012-11-11 10:25:00,
2012-11-11 02:30:00,29.7,28.4,30.18,ENE,67,0.0,0.0,95,0.00,,,0.00,WUHU21623XXSP,2012-11-11 10:30:00,
2012-11-11 02:35:00,29.7,28.4,30.18,NE,45,0.0,0.0,95,0.00,,,0.00,WUHU21623XXSP,2012-11-11 10:35:00,
2012-11-11 02:40:00,29.7,28.4,30.18,NE,45,0.0,0.0,95,0.00,,,0.00,WUHU21623XXSP,2012-11-11 10:40:00,
2012-11-11 02:45:00,29.7,28.7,30.18,NE,45,0.0,0.0,96,0.00,,,0.00,WUHU21623XXSP,2012-11-11 10:45:00,
2012-11-11 02:50:00,29.7,28.7,30.18,NE,45,0.0,0.0,96,0.00,,,0.00,WUHU21623XXSP,2012-11-11 10:50:00,
2012-11-11 02:55:00,29.8,28.8,30.18,NE,45,0.0,0.0,96,0.00,,,0.00,WUHU21623XXSP,2012-11-11 10:55:00,
2012-11-11 03:00:00,29.8,28.8,30.18,NE,45,0.0,0.0,96,0.00,,,0.00,WUHU21623XXSP,2012-11-11 11:00:00,
2012-11-11 03:05:00,30.0,29.0,30.18,NE,45,0.0,0.0,96,0.00,,,0.00,WUHU21623XXSP,2012-11-11 11:05:00,
2012-11-11 03:10:00,30.0,29.0,30.18,NE,45,0.0,0.0,96,0.00,,,0.00,WUHU21623XXSP,2012-11-11 11:10:00,
2012-11-11 03:15:00,30.0,29.0,30.18,NE,45,0.0,0.0,96,0.00,,,0.00,WUHU21623XXSP,2012-11-11 11:15:00,
2012-11-11 03:20:00,30.0,29.0,30.18,NE,45,0.0,0.0,96,0.00,,,0.00,WUHU21623XXSP,2012-11-11 11:20:00,
2012-11-11 03:25:00,30.0,29.0,30.18,NE,45,0.0,0.0,96,0.00,,,0.00,WUHU21623XXSP,2012-11-11 11:25:00,
2012-11-11 03:30:00,30.0,29.0,30.18,NE,45,0.0,0.0,96,0.00,,,0.00,WUHU21623XXSP,2012-11-11 11:30:00,
2012-11-11 03:35:00,30.0,29.0,30.18,NE,45,0.0,0.0,96,0.00,,,0.00,WUHU21623XXSP,2012-11-11 11:35:00,
2012-11-11 03:40:00,29.8,28.8,30.18,NE,45,0.0,0.0,96,0.00,,,0.00,WUHU21623XXSP,2012-11-11 11:40:00,
2012-11-11 03:45:00,29.8,28.8,30.18,NE,45,0.0,0.0,96,0.00,,,0.00,WUHU21623XXSP,2012-11-11 11:45:00,
2012-11-11 03:50:00,29.5,28.5,30.18,NE,45,0.0,0.0,96,0.00,,,0.00,WUHU21623XXSP,2012-11-11 11:50:00,
2012-11-11 03:55:00,29.5,28.5,30.18,NE,45,0.0,0.0,96,0.00,,,0.00,WUHU21623XXSP,2012-11-11 11:55:00,
2012-11-11 04:00:00,29.5,28.5,30.18,NE,45,0.0,0.0,96,0.00,,,0.00,WUHU21623XXSP,2012-11-11 12:00:00,
2012-11-11 04:05:00,29.5,28.5,30.18,NE,45,0.0,0.0,96,0.00,,,0.00,WUHU21623XXSP,2012-11-11 12:05:00,
2012-11-11 04:10:00,29.5,28.5,30.18,NE,45,0.0,0.0,96,0.00,,,0.00,WUHU21623XXSP,2012-11-11 12:10:00,
2012-11-11 04:15:00,29.5,28.5,30.18,NE,45,0.0,0.0,96,0.00,,,0.00,WUHU21623XXSP,2012-11-11 12:15:00,
2012-11-11 04:20:00,29.5,28.7,30.18,NE,45,0.0,0.0,96,0.00,,,0.00,WUHU21623XXSP,2012-11-11 12:20:00,
2012-11-11 04:25:00,29.7,28.7,30.18,NE,45,0.0,0.0,96,0.00,,,0.00,WUHU21623XXSP,2012-11-11 12:25:00,
2012-11-11 04:30:00,29.7,28.5,30.18,NE,45,0.0,0.0,96,0.00,,,0.00,WUHU21623XXSP,2012-11-11 12:30:00,
2012-11-11 04:35:00,29.5,28.7,30.18,NE,45,0.0,0.0,96,0.00,,,0.00,WUHU21623XXSP,2012-11-11 12:35:00,
2012-11-11 04:40:00,29.5,28.5,30.17,NE,45,0.0,0.0,96,0.00,,,0.00,WUHU21623XXSP,2012-11-11 12:40:00,
2012-11-11 04:45:00,29.5,28.5,30.17,NE,45,0.0,0.0,96,0.00,,,0.00,WUHU21623XXSP,2012-11-11 12:45:00,
2012-11-11 04:50:00,29.5,28.5,30.17,NE,45,0.0,0.0,96,0.00,,,0.00,WUHU21623XXSP,2012-11-11 12:50:00,
2012-11-11 04:55:00,29.5,28.5,30.17,NNE,22,0.0,0.0,96,0.00,,,0.00,WUHU21623XXSP,2012-11-11 12:55:00,
2012-11-11 05:00:00,29.5,28.5,30.18,NNE,22,0.0,0.0,96,0.00,,,0.00,WUHU21623XXSP,2012-11-11 13:00:00,
2012-11-11 05:05:00,29.5,28.5,30.17,NNE,22,0.0,0.0,96,0.00,,,0.00,WUHU21623XXSP,2012-11-11 13:05:00,
2012-11-11 05:10:00,29.7,28.7,30.17,NNE,22,0.0,0.0,96,0.00,,,0.00,WUHU21623XXSP,2012-11-11 13:10:00,
2012-11-11 05:15:00,29.8,28.8,30.18,NNE,22,0.0,0.0,96,0.00,,,0.00,WUHU21623XXSP,2012-11-11 13:15:00,
2012-11-11 05:20:00,29.8,28.8,30.18,NNE,22,0.0,0.0,96,0.00,,,0.00,WUHU21623XXSP,2012-11-11 13:20:00,
2012-11-11 05:25:00,29.8,28.8,30.18,NNE,22,0.0,0.0,96,0.00,,,0.00,WUHU21623XXSP,2012-11-11 13:25:00,
2012-11-11 05:30:00,30.0,29.0,30.18,NNE,22,0.0,0.0,96,0.00,,,0.00,WUHU21623XXSP,2012-11-11 13:30:00,
2012-11-11 05:35:00,30.0,29.0,30.17,NNE,22,0.0,0.0,96,0.00,,,0.00,WUHU21623XXSP,2012-11-11 13:35:00,
2012-11-11 05:40:00,30.0,29.0,30.17,NNE,22,0.0,0.0,96,0.00,,,0.00,WUHU21623XXSP,2012-11-11 13:40:00,
2012-11-11 05:45:00,30.0,29.0,30.17,NE,45,0.0,0.0,96,0.00,,,0.00,WUHU21623XXSP,2012-11-11 13:45:00,
2012-11-11 05:50:00,30.0,29.0,30.17,NE,45,0.0,0.0,96,0.00,,,0.00,WUHU21623XXSP,2012-11-11 13:50:00,
2012-11-11 05:55:00,30.0,29.0,30.17,NE,45,0.0,0.0,96,0.00,,,0.00,WUHU21623XXSP,2012-11-11 13:55:00,
2012-11-11 06:00:00,30.0,29.0,30.17,NE,45,0.0,0.0,96,0.00,,,0.00,WUHU21623XXSP,2012-11-11 14:00:00,
2012-11-11 06:05:00,30.0,29.0,30.17,NE,45,0.0,0.0,96,0.00,,,0.00,WUHU21623XXSP,2012-11-11 14:05:00,
2012-11-11 06:10:00,30.2,29.2,30.17,ENE,67,0.0,0.0,96,0.00,,,0.00,WUHU21623XXSP,2012-11-11 14:10:00,
2012-11-11 06:15:00,30.4,29.4,30.17,NNE,22,0.0,0.0,96,0.00,,,0.00,WUHU21623XXSP,2012-11-11 14:15:00,
2012-11-11 06:20:00,30.4,29.4,30.17,NNE,22,0.0,0.0,96,0.00,,,0.00,WUHU21623XXSP,2012-11-11 14:20:00,
2012-11-11 06:25:00,30.6,29.6,30.17,NNE,22,0.0,0.0,96,0.00,,,0.00,WUHU21623XXSP,2012-11-11 14:25:00,
2012-11-11 06:30:00,30.7,29.7,30.16,North,0,0.0,0.0,96,0.00,,,0.00,WUHU21623XXSP,2012-11-11 14:30:00,
2012-11-11 06:35:00,30.7,29.7,30.16,NE,45,0.0,0.0,96,0.00,,,0.00,WUHU21623XXSP,2012-11-11 14:35:00,
2012-11-11 06:40:00,30.9,29.7,30.17,NE,45,0.0,0.0,96,0.00,,,0.00,WUHU21623XXSP,2012-11-11 14:40:00,
2012-11-11 06:45:00,30.9,29.9,30.17,NE,45,0.0,0.0,96,0.00,,,0.00,WUHU21623XXSP,2012-11-11 14:45:00,
2012-11-11 06:50:00,31.1,30.1,30.17,NE,45,0.0,0.0,96,0.00,,,0.00,WUHU21623XXSP,2012-11-11 14:50:00,
2012-11-11 06:55:00,31.1,30.1,30.16,NE,45,0.0,0.0,96,0.00,,,0.00,WUHU21623XXSP,2012-11-11 14:55:00,
2012-11-11 07:00:00,31.1,30.1,30.16,NNE,22,0.0,0.0,96,0.00,,,0.00,WUHU21623XXSP,2012-11-11 15:00:00,
2012-11-11 07:05:00,31.1,30.1,30.16,NNE,22,0.0,0.0,96,0.00,,,0.00,WUHU21623XXSP,2012-11-11 15:05:00,
2012-11-11 07:10:00,31.1,30.1,30.16,NE,45,0.0,0.0,96,0.00,,,0.00,WUHU21623XXSP,2012-11-11 15:10:00,
2012-11-11 07:15:00,31.1,30.1,30.16,NE,45,0.0,0.0,96,0.00,,,0.00,WUHU21623XXSP,2012-11-11 15:15:00,
2012-11-11 07:20:00,31.1,30.1,30.16,NE,45,0.0,0.0,96,0.00,,,0.00,WUHU21623XXSP,2012-11-11 15:20:00,
2012-11-11 07:25:00,31.3,30.3,30.16,NE,45,0.0,0.0,96,0.00,,,0.00,WUHU21623XXSP,2012-11-11 15:25:00,
2012-11-11 07:30:00,31.3,30.3,30.16,NE,45,0.0,0.0,96,0.00,,,0.00,WUHU21623XXSP,2012-11-11 15:30:00,
2012-11-11 07:35:00,31.3,30.3,30.17,NE,45,0.0,0.0,96,0.00,,,0.00,WUHU21623XXSP,2012-11-11 15:35:00,
2012-11-11 07:40:00,31.3,30.3,30.17,NE,45,0.0,0.0,96,0.00,,,0.00,WUHU21623XXSP,2012-11-11 15:40:00,
2012-11-11 07:45:00,31.3,30.3,30.17,NE,45,0.0,0.0,96,0.00,,,0.00,WUHU21623XXSP,2012-11-11 15:45:00,
2012-11-11 07:50:00,31.6,30.3,30.17,NE,45,0.0,0.0,96,0.00,,,0.00,WUHU21623XXSP,2012-11-11 15:50:00,
2012-11-11 07:55:00,31.6,30.6,30.17,NE,45,0.0,0.0,96,0.00,,,0.00,WUHU21623XXSP,2012-11-11 15:55:00,
2012-11-11 08:00:00,31.6,30.6,30.17,NE,45,0.0,0.0,96,0.00,,,0.00,WUHU21623XXSP,2012-11-11 16:00:00,
2012-11-11 08:05:00,31.6,30.6,30.17,NE,45,0.0,0.0,96,0.00,,,0.00,WUHU21623XXSP,2012-11-11 16:05:00,
2012-11-11 08:10:00,31.6,30.6,30.17,NE,45,0.0,0.0,96,0.00,,,0.00,WUHU21623XXSP,2012-11-11 16:10:00,
2012-11-11 08:15:00,31.6,30.6,30.17,NE,45,0.0,0.0,96,0.00,,,0.00,WUHU21623XXSP,2012-11-11 16:15:00,
2012-11-11 08:20:00,31.6,30.6,30.17,NE,45,0.0,0.0,96,0.00,,,0.00,WUHU21623XXSP,2012-11-11 16:20:00,
2012-11-11 08:25:00,31.8,30.8,30.17,NE,45,0.0,0.0,96,0.00,,,0.00,WUHU21623XXSP,2012-11-11 16:25:00,
2012-11-11 08:30:00,31.8,30.8,30.18,ENE,67,0.0,0.0,96,0.00,,,0.00,WUHU21623XXSP,2012-11-11 16:30:00,
2012-11-11 08:35:00,32.0,31.0,30.17,ENE,67,0.0,0.0,96,0.00,,,0.00,WUHU21623XXSP,2012-11-11 16:35:00,
2012-11-11 08:40:00,32.2,31.2,30.17,NE,45,0.0,0.0,96,0.00,,,0.00,WUHU21623XXSP,2012-11-11 16:40:00,
2012-11-11 08:45:00,32.4,31.3,30.17,NE,45,0.0,0.0,96,0.00,,,0.00,WUHU21623XXSP,2012-11-11 16:45:00,
2012-11-11 08:50:00,32.5,31.5,30.17,NE,45,0.0,0.0,96,0.00,,,0.00,WUHU21623XXSP,2012-11-11 16:50:00,
2012-11-11 08:55:00,32.5,31.5,30.17,NE,45,0.0,0.0,96,0.00,,,0.00,WUHU21623XXSP,2012-11-11 16:55:00,
2012-11-11 09:00:00,32.5,31.5,30.17,NE,45,0.0,0.0,96,0.00,,,0.00,WUHU21623XXSP,2012-11-11 17:00:00,
2012-11-11 09:05:00,32.7,31.7,30.17,NE,45,0.0,0.0,96,0.00,,,0.00,WUHU21623XXSP,2012-11-11 17:05:00,
2012-11-11 09:10:00,32.7,31.7,30.17,NE,45,0.0,0.0,96,0.00,,,0.00,WUHU21623XXSP,2012-11-11 17:10:00,
2012-11-11 09:15:00,32.9,31.9,30.17,NE,45,0.0,0.0,96,0.00,,,0.00,WUHU21623XXSP,2012-11-11 17:15:00,
2012-11-11 09:20:00,32.9,31.9,30.17,NE,45,0.0,0.0,96,0.00,,,0.00,WUHU21623XXSP,2012-11-11 17:20:00,
2012-11-11 09:25:00,32.9,31.9,30.17,NE,45,0.0,0.0,96,0.00,,,0.00,WUHU21623XXSP,2012-11-11 17:25:00,
2012-11-11 09:30:00,33.1,32.0,30.17,NE,45,0.0,0.0,96,0.00,,,0.00,WUHU21623XXSP,2012-11-11 17:30:00,
2012-11-11 09:35:00,33.1,32.0,30.17,NE,45,0.0,0.0,96,0.00,,,0.00,WUHU21623XXSP,2012-11-11 17:35:00,
2012-11-11 09:40:00,33.3,32.2,30.17,NE,45,0.0,0.0,96,0.00,,,0.00,WUHU21623XXSP,2012-11-11 17:40:00,
2012-11-11 09:45:00,33.6,32.5,30.17,NE,45,0.0,0.0,96,0.00,,,0.00,WUHU21623XXSP,2012-11-11 17:45:00,
2012-11-11 09:50:00,33.6,32.5,30.17,NE,45,0.0,0.0,96,0.00,,,0.00,WUHU21623XXSP,2012-11-11 17:50:00,
2012-11-11 09:55:00,33.6,32.5,30.18,NE,45,0.0,0.0,96,0.00,,,0.00,WUHU21623XXSP,2012-11-11 17:55:00,
2012-11-11 10:00:00,33.8,32.7,30.18,NE,45,0.0,0.0,96,0.00,,,0.00,WUHU21623XXSP,2012-11-11 18:00:00,
2012-11-11 10:05:00,34.0,32.9,30.18,NE,45,0.0,0.0,96,0.00,,,0.00,WUHU21623XXSP,2012-11-11 18:05:00,
2012-11-11 10:11:00,34.2,33.1,30.18,NE,45,0.0,0.0,96,0.00,,,0.00,WUHU21623XXSP,2012-11-11 18:11:00,
2012-11-11 10:16:00,34.3,33.3,30.18,NE,45,0.0,0.0,96,0.00,,,0.00,WUHU21623XXSP,2012-11-11 18:16:00,
2012-11-11 10:20:00,34.3,33.5,30.18,NE,45,0.0,0.0,97,0.00,,,0.00,WUHU21623XXSP,2012-11-11 18:20:00,
2012-11-11 10:26:00,34.3,33.5,30.18,SSW,202,0.0,0.0,97,0.00,,,0.00,WUHU21623XXSP,2012-11-11 18:26:00,
2012-11-11 10:31:00,34.3,33.5,30.19,SSW,202,0.0,0.0,97,0.00,,,0.00,WUHU21623XXSP,2012-11-11 18:31:00,
2012-11-11 10:36:00,34.3,33.5,30.19,SSW,202,0.0,0.0,97,0.00,,,0.00,WUHU21623XXSP,2012-11-11 18:36:00,
2012-11-11 10:41:00,34.3,33.5,30.19,SSW,202,0.0,0.0,97,0.00,,,0.00,WUHU21623XXSP,2012-11-11 18:41:00,
2012-11-11 10:46:00,34.3,33.5,30.19,SSW,202,0.0,0.0,97,0.00,,,0.00,WUHU21623XXSP,2012-11-11 18:46:00,
2012-11-11 10:51:00,34.3,33.5,30.18,SSW,202,0.0,0.0,97,0.00,,,0.00,WUHU21623XXSP,2012-11-11 18:51:00,
2012-11-11 10:56:00,34.3,33.5,30.18,SSW,202,0.0,0.0,97,0.00,,,0.00,WUHU21623XXSP,2012-11-11 18:56:00,
2012-11-11 11:45:00,37.8,37.0,30.17,NE,45,0.0,0.0,97,0.00,,,0.00,WUHU21623XXSP,2012-11-11 19:45:00,
2012-11-11 11:50:00,37.9,37.1,30.17,SE,135,0.0,0.0,97,0.00,,,0.00,WUHU21623XXSP,2012-11-11 19:50:00,
2012-11-11 11:55:00,38.1,37.3,30.17,ENE,67,0.0,0.0,97,0.00,,,0.00,WUHU21623XXSP,2012-11-11 19:55:00,
2012-11-11 12:00:00,38.5,37.7,30.17,ENE,67,0.0,0.0,97,0.00,,,0.00,WUHU21623XXSP,2012-11-11 20:00:00,
2012-11-11 12:05:00,38.8,38.0,30.16,ENE,67,0.0,0.0,97,0.00,,,0.00,WUHU21623XXSP,2012-11-11 20:05:00,
2012-11-11 12:10:00,39.0,38.2,30.16,ENE,67,0.0,0.0,97,0.00,,,0.00,WUHU21623XXSP,2012-11-11 20:10:00,
2012-11-11 12:15:00,39.4,38.6,30.16,ENE,67,0.0,0.0,97,0.00,,,0.00,WUHU21623XXSP,2012-11-11 20:15:00,
2012-11-11 12:20:00,39.4,38.6,30.16,ENE,67,0.0,0.0,97,0.00,,,0.00,WUHU21623XXSP,2012-11-11 20:20:00,
2012-11-11 12:25:00,39.4,38.6,30.16,ENE,67,0.0,0.0,97,0.00,,,0.00,WUHU21623XXSP,2012-11-11 20:25:00,
2012-11-11 12:30:00,39.7,38.9,30.16,ENE,67,0.0,0.0,97,0.00,,,0.00,WUHU21623XXSP,2012-11-11 20:30:00,
2012-11-11 12:35:00,39.7,38.9,30.16,ENE,67,0.0,0.0,97,0.00,,,0.00,WUHU21623XXSP,2012-11-11 20:35:00,
2012-11-11 12:40:00,39.7,38.9,30.16,ENE,67,0.0,0.0,97,0.00,,,0.00,WUHU21623XXSP,2012-11-11 20:40:00,
2012-11-11 12:45:00,39.9,39.1,30.16,NE,45,0.0,0.0,97,0.00,,,0.00,WUHU21623XXSP,2012-11-11 20:45:00,
2012-11-11 12:50:00,39.9,39.1,30.16,NE,45,0.0,0.0,97,0.00,,,0.00,WUHU21623XXSP,2012-11-11 20:50:00,
2012-11-11 12:55:00,39.9,39.1,30.16,NE,45,0.0,0.0,97,0.00,,,0.00,WUHU21623XXSP,2012-11-11 20:55:00,
2012-11-11 13:00:00,39.9,39.1,30.16,NE,45,0.0,0.0,97,0.00,,,0.00,WUHU21623XXSP,2012-11-11 21:00:00,
2012-11-11 13:05:00,40.1,39.3,30.16,NE,45,0.0,0.0,97,0.00,,,0.00,WUHU21623XXSP,2012-11-11 21:05:00,
2012-11-11 13:10:00,40.3,39.5,30.15,NE,45,0.0,0.0,97,0.00,,,0.00,WUHU21623XXSP,2012-11-11 21:10:00,
2012-11-11 13:15:00,40.5,39.6,30.15,NE,45,0.0,0.0,97,0.00,,,0.00,WUHU21623XXSP,2012-11-11 21:15:00,
2012-11-11 13:20:00,40.5,39.6,30.15,NE,45,0.0,0.0,97,0.00,,,0.00,WUHU21623XXSP,2012-11-11 21:20:00,
2012-11-11 13:25:00,40.6,39.8,30.15,NNE,22,0.0,0.0,97,0.00,,,0.00,WUHU21623XXSP,2012-11-11 21:25:00,
2012-11-11 13:30:00,40.8,40.0,30.14,ENE,67,0.0,0.0,97,0.00,,,0.00,WUHU21623XXSP,2012-11-11 21:30:00,
2012-11-11 13:35:00,40.8,40.0,30.14,NNE,22,0.0,0.0,97,0.00,,,0.00,WUHU21623XXSP,2012-11-11 21:35:00,
2012-11-11 13:40:00,40.8,40.0,30.14,NNE,22,0.0,0.0,97,0.00,,,0.00,WUHU21623XXSP,2012-11-11 21:40:00,
2012-11-11 13:45:00,40.8,40.0,30.13,East,90,0.0,0.0,97,0.00,,,0.00,WUHU21623XXSP,2012-11-11 21:45:00,
2012-11-11 13:51:00,41.2,40.4,30.14,North,0,0.0,0.0,97,0.00,,,0.00,WUHU21623XXSP,2012-11-11 21:51:00,
2012-11-11 13:56:00,41.4,40.5,30.13,East,90,0.0,0.0,97,0.00,,,0.00,WUHU21623XXSP,2012-11-11 21:56:00,
2012-11-11 14:01:00,41.4,40.5,30.13,ESE,112,0.0,0.0,97,0.00,,,0.00,WUHU21623XXSP,2012-11-11 22:01:00,
2012-11-11 14:06:00,41.4,40.5,30.13,NNE,22,0.0,0.0,97,0.00,,,0.00,WUHU21623XXSP,2012-11-11 22:06:00,
2012-11-11 14:11:00,41.4,40.5,30.12,NNE,22,0.0,0.0,97,0.00,,,0.00,WUHU21623XXSP,2012-11-11 22:11:00,
2012-11-11 14:16:00,41.4,40.5,30.12,NNE,22,0.0,0.0,97,0.00,,,0.00,WUHU21623XXSP,2012-11-11 22:16:00,
2012-11-11 14:21:00,41.4,40.5,30.12,NNE,22,0.0,0.0,97,0.00,,,0.00,WUHU21623XXSP,2012-11-11 22:21:00,
2012-11-11 14:26:00,41.4,40.3,30.12,NNE,22,0.0,0.0,96,0.00,,,0.00,WUHU21623XXSP,2012-11-11 22:26:00,
2012-11-11 14:31:00,41.4,40.3,30.12,NNE,22,0.0,0.0,96,0.00,,,0.00,WUHU21623XXSP,2012-11-11 22:31:00,
2012-11-11 14:36:00,41.2,40.1,30.12,NNE,22,0.0,0.0,96,0.00,,,0.00,WUHU21623XXSP,2012-11-11 22:36:00,
2012-11-11 14:41:00,41.2,40.1,30.12,NNE,22,0.0,0.0,96,0.00,,,0.00,WUHU21623XXSP,2012-11-11 22:41:00,
2012-11-11 14:46:00,41.2,40.1,30.12,NE,45,0.0,0.0,96,0.00,,,0.00,WUHU21623XXSP,2012-11-11 22:46:00,
2012-11-11 14:51:00,41.2,40.1,30.12,NE,45,0.0,0.0,96,0.00,,,0.00,WUHU21623XXSP,2012-11-11 22:51:00,
2012-11-11 14:56:00,41.0,39.9,30.12,NE,45,0.0,0.0,96,0.00,,,0.00,WUHU21623XXSP,2012-11-11 22:56:00,
2012-11-11 15:01:00,41.2,40.4,30.12,NE,45,0.0,0.0,97,0.00,,,0.00,WUHU21623XXSP,2012-11-11 23:01:00,
2012-11-11 15:06:00,41.0,40.2,30.12,NE,45,0.0,0.0,97,0.00,,,0.00,WUHU21623XXSP,2012-11-11 23:06:00,
2012-11-11 15:11:00,41.0,39.9,30.11,NE,45,0.0,0.0,96,0.00,,,0.00,WUHU21623XXSP,2012-11-11 23:11:00,
2012-11-11 15:16:00,41.0,40.2,30.11,NE,45,0.0,0.0,97,0.00,,,0.00,WUHU21623XXSP,2012-11-11 23:16:00,
2012-11-11 15:21:00,41.0,40.2,30.11,NE,45,0.0,0.0,97,0.00,,,0.00,WUHU21623XXSP,2012-11-11 23:21:00,
2012-11-11 15:26:00,40.8,40.0,30.11,NE,45,0.0,0.0,97,0.00,,,0.00,WUHU21623XXSP,2012-11-11 23:26:00,
2012-11-11 15:31:00,40.8,40.0,30.11,NE,45,0.0,0.0,97,0.00,,,0.00,WUHU21623XXSP,2012-11-11 23:31:00,
2012-11-11 15:36:00,40.8,40.0,30.11,NE,45,0.0,0.0,97,0.00,,,0.00,WUHU21623XXSP,2012-11-11 23:36:00,
2012-11-11 15:41:00,40.8,40.0,30.11,NE,45,0.0,0.0,97,0.00,,,0.00,WUHU21623XXSP,2012-11-11 23:41:00,
2012-11-11 15:46:00,40.8,40.0,30.11,NE,45,0.0,0.0,97,0.00,,,0.00,WUHU21623XXSP,2012-11-11 23:46:00,
2012-11-11 15:51:00,40.8,40.0,30.11,NE,45,0.0,0.0,97,0.00,,,0.00,WUHU21623XXSP,2012-11-11 23:51:00,
2012-11-11 15:56:00,40.8,40.0,30.11,NE,45,0.0,0.0,97,0.00,,,0.00,WUHU21623XXSP,2012-11-11 23:56:00,
2012-11-11 16:01:00,40.8,40.0,30.10,NE,45,0.0,0.0,97,0.00,,,0.00,WUHU21623XXSP,2012-11-12 00:01:00,
2012-11-11 16:06:00,40.8,40.0,30.10,NE,45,0.0,0.0,97,0.00,,,0.00,WUHU21623XXSP,2012-11-12 00:06:00,
2012-11-11 16:11:00,40.8,40.0,30.10,NE,45,0.0,0.0,97,0.00,,,0.00,WUHU21623XXSP,2012-11-12 00:11:00,
2012-11-11 16:16:00,40.8,40.0,30.10,NE,45,0.0,0.0,97,0.00,,,0.00,WUHU21623XXSP,2012-11-12 00:16:00,
2012-11-11 16:21:00,40.8,40.0,30.10,NE,45,0.0,0.0,97,0.00,,,0.00,WUHU21623XXSP,2012-11-12 00:21:00,
2012-11-11 16:26:00,40.8,40.0,30.10,NE,45,0.0,0.0,97,0.00,,,0.00,WUHU21623XXSP,2012-11-12 00:26:00,
2012-11-11 16:31:00,40.8,40.0,30.10,NE,45,0.0,0.0,97,0.00,,,0.00,WUHU21623XXSP,2012-11-12 00:31:00,
2012-11-11 16:36:00,40.8,40.0,30.10,NE,45,0.0,0.0,97,0.00,,,0.00,WUHU21623XXSP,2012-11-12 00:36:00,
2012-11-11 16:41:00,40.8,40.0,30.10,NE,45,0.0,0.0,97,0.00,,,0.00,WUHU21623XXSP,2012-11-12 00:41:00,
2012-11-11 16:46:00,40.8,40.0,30.10,NE,45,0.0,0.0,97,0.00,,,0.00,WUHU21623XXSP,2012-11-12 00:46:00,
2012-11-11 16:51:00,40.6,39.8,30.10,NE,45,0.0,0.0,97,0.00,,,0.00,WUHU21623XXSP,2012-11-12 00:51:00,
2012-11-11 16:56:00,40.8,40.0,30.10,NE,45,0.0,0.0,97,0.00,,,0.00,WUHU21623XXSP,2012-11-12 00:56:00,
2012-11-11 17:01:00,40.6,39.8,30.10,NE,45,0.0,0.0,97,0.00,,,0.00,WUHU21623XXSP,2012-11-12 01:01:00,
2012-11-11 17:06:00,40.6,39.8,30.10,NE,45,0.0,0.0,97,0.00,,,0.00,WUHU21623XXSP,2012-11-12 01:06:00,
2012-11-11 17:11:00,40.8,40.0,30.10,NE,45,0.0,0.0,97,0.00,,,0.00,WUHU21623XXSP,2012-11-12 01:11:00,
2012-11-11 17:16:00,40.6,39.8,30.10,NE,45,0.0,0.0,97,0.00,,,0.00,WUHU21623XXSP,2012-11-12 01:16:00,
2012-11-11 17:21:00,40.6,39.8,30.10,NE,45,0.0,0.0,97,0.00,,,0.00,WUHU21623XXSP,2012-11-12 01:21:00,
2012-11-11 17:26:00,40.6,39.8,30.09,NE,45,0.0,0.0,97,0.00,,,0.00,WUHU21623XXSP,2012-11-12 01:26:00,
2012-11-11 17:31:00,40.6,39.8,30.09,ESE,112,0.0,0.0,97,0.00,,,0.00,WUHU21623XXSP,2012-11-12 01:31:00,
2012-11-11 17:36:00,40.6,39.8,30.10,ESE,112,0.0,0.0,97,0.00,,,0.00,WUHU21623XXSP,2012-11-12 01:36:00,
2012-11-11 17:41:00,40.6,39.8,30.10,ESE,112,0.0,0.0,97,0.00,,,0.00,WUHU21623XXSP,2012-11-12 01:41:00,
2012-11-11 17:46:00,40.6,40.1,30.10,SE,135,0.0,0.0,98,0.00,,,0.00,WUHU21623XXSP,2012-11-12 01:46:00,
2012-11-11 17:51:00,40.8,40.0,30.09,NE,45,0.0,0.0,97,0.00,,,0.00,WUHU21623XXSP,2012-11-12 01:51:00,
2012-11-11 17:56:00,40.8,40.3,30.09,NE,45,0.0,0.0,98,0.00,,,0.00,WUHU21623XXSP,2012-11-12 01:56:00,
2012-11-11 18:01:00,40.8,40.3,30.08,NE,45,0.0,0.0,98,0.00,,,0.00,WUHU21623XXSP,2012-11-12 02:01:00,
2012-11-11 18:06:00,40.6,40.1,30.08,ENE,67,0.0,0.0,98,0.00,,,0.00,WUHU21623XXSP,2012-11-12 02:06:00,
2012-11-11 18:11:00,40.8,40.3,30.08,SE,135,0.0,0.0,98,0.00,,,0.00,WUHU21623XXSP,2012-11-12 02:11:00,
2012-11-11 18:16:00,40.8,40.3,30.07,SE,135,0.0,0.0,98,0.00,,,0.00,WUHU21623XXSP,2012-11-12 02:16:00,
2012-11-11 18:21:00,40.8,40.3,30.07,SE,135,0.0,0.0,98,0.00,,,0.00,WUHU21623XXSP,2012-11-12 02:21:00,
2012-11-11 18:26:00,40.8,40.3,30.07,ESE,112,0.0,0.0,98,0.00,,,0.00,WUHU21623XXSP,2012-11-12 02:26:00,
2012-11-11 18:31:00,40.8,40.3,30.06,ENE,67,0.0,0.0,98,0.00,,,0.00,WUHU21623XXSP,2012-11-12 02:31:00,
2012-11-11 18:36:00,40.8,40.3,30.06,SE,135,0.0,0.0,98,0.00,,,0.00,WUHU21623XXSP,2012-11-12 02:36:00,
2012-11-11 18:41:00,40.8,40.3,30.06,ENE,67,0.0,0.0,98,0.00,,,0.00,WUHU21623XXSP,2012-11-12 02:41:00,
2012-11-11 18:46:00,40.8,40.3,30.05,ENE,67,0.0,0.0,98,0.00,,,0.00,WUHU21623XXSP,2012-11-12 02:46:00,
2012-11-11 18:51:00,40.8,40.3,30.05,ENE,67,0.0,0.0,98,0.00,,,0.00,WUHU21623XXSP,2012-11-12 02:51:00,
2012-11-11 18:56:00,40.8,40.3,30.05,ENE,67,0.0,0.0,98,0.00,,,0.00,WUHU21623XXSP,2012-11-12 02:56:00,
2012-11-11 19:01:00,40.8,40.3,30.05,ESE,112,0.0,0.0,98,0.00,,,0.00,WUHU21623XXSP,2012-11-12 03:01:00,
2012-11-11 19:06:00,40.8,40.3,30.05,West,270,0.0,0.0,98,0.00,,,0.00,WUHU21623XXSP,2012-11-12 03:06:00,
2012-11-11 19:11:00,40.8,40.3,30.04,SSE,157,0.0,0.0,98,0.00,,,0.00,WUHU21623XXSP,2012-11-12 03:11:00,
2012-11-11 19:16:00,41.0,40.5,30.04,East,90,0.0,0.0,98,0.00,,,0.00,WUHU21623XXSP,2012-11-12 03:16:00,
2012-11-11 19:21:00,41.0,40.5,30.03,SE,135,0.0,0.0,98,0.00,,,0.00,WUHU21623XXSP,2012-11-12 03:21:00,
2012-11-11 19:26:00,41.2,40.5,30.03,SE,135,0.0,0.0,98,0.00,,,0.00,WUHU21623XXSP,2012-11-12 03:26:00,
2012-11-11 19:31:00,41.2,40.6,30.03,South,180,0.0,0.0,98,0.00,,,0.00,WUHU21623XXSP,2012-11-12 03:31:00,
2012-11-11 19:36:00,41.2,40.6,30.04,SE,135,0.0,0.0,98,0.00,,,0.00,WUHU21623XXSP,2012-11-12 03:36:00,
2012-11-11 19:42:00,41.2,40.6,30.03,East,90,0.0,0.0,98,0.00,,,0.00,WUHU21623XXSP,2012-11-12 03:42:00,
2012-11-11 19:47:00,41.2,40.6,30.03,ESE,112,0.0,0.0,98,0.00,,,0.00,WUHU21623XXSP,2012-11-12 03:47:00,
2012-11-11 19:52:00,41.2,40.6,30.04,ESE,112,0.0,0.0,98,0.00,,,0.00,WUHU21623XXSP,2012-11-12 03:52:00,
2012-11-11 19:57:00,41.2,40.6,30.03,ESE,112,0.0,0.0,98,0.00,,,0.00,WUHU21623XXSP,2012-11-12 03:57:00,
2012-11-11 20:02:00,41.2,40.6,30.04,ESE,112,0.0,0.0,98,0.00,,,0.00,WUHU21623XXSP,2012-11-12 04:02:00,
2012-11-11 20:07:00,41.2,40.6,30.04,SW,225,0.0,0.0,98,0.00,,,0.00,WUHU21623XXSP,2012-11-12 04:07:00,
2012-11-11 20:12:00,41.2,40.6,30.04,SW,225,0.0,0.0,98,0.00,,,0.00,WUHU21623XXSP,2012-11-12 04:12:00,
2012-11-11 20:17:00,41.2,40.6,30.05,SW,225,0.0,0.0,98,0.00,,,0.00,WUHU21623XXSP,2012-11-12 04:17:00,
2012-11-11 20:22:00,41.2,40.6,30.05,SW,225,0.0,0.0,98,0.00,,,0.00,WUHU21623XXSP,2012-11-12 04:22:00,
2012-11-11 20:27:00,41.2,40.6,30.05,SW,225,0.0,0.0,98,0.00,,,0.00,WUHU21623XXSP,2012-11-12 04:27:00,
2012-11-11 20:32:00,41.2,40.6,30.05,SW,225,0.0,0.0,98,0.00,,,0.00,WUHU21623XXSP,2012-11-12 04:32:00,
2012-11-11 20:37:00,41.2,40.6,30.05,SW,225,0.0,0.0,98,0.00,,,0.00,WUHU21623XXSP,2012-11-12 04:37:00,
2012-11-11 20:42:00,41.2,40.6,30.05,SW,225,0.0,0.0,98,0.00,,,0.00,WUHU21623XXSP,2012-11-12 04:42:00,
2012-11-11 20:47:00,41.2,40.6,30.05,NNW,337,0.0,0.0,98,0.00,,,0.00,WUHU21623XXSP,2012-11-12 04:47:00,
2012-11-11 20:52:00,41.2,40.6,30.05,NNW,337,0.0,0.0,98,0.00,,,0.00,WUHU21623XXSP,2012-11-12 04:52:00,
2012-11-11 20:57:00,41.2,40.6,30.05,NNW,337,0.0,0.0,98,0.00,,,0.00,WUHU21623XXSP,2012-11-12 04:57:00,
2012-11-11 21:00:00,41.2,40.6,30.05,NNW,337,0.0,0.0,98,0.00,,,0.00,WUHU21623XXSP,2012-11-12 05:00:00,
2012-11-11 21:01:00,41.2,40.6,30.05,NNW,337,0.0,0.0,98,0.00,,,0.00,WUHU21623XXSP,2012-11-12 05:01:00,
2012-11-11 21:03:00,41.2,40.6,30.05,NNW,337,0.0,0.0,98,0.00,,,0.00,WUHU21623XXSP,2012-11-12 05:03:00,
2012-11-11 21:08:00,41.2,40.6,30.06,NNW,337,0.0,0.0,98,0.00,,,0.00,WUHU21623XXSP,2012-11-12 05:08:00,
2012-11-11 21:13:00,41.4,40.8,30.05,NNW,337,0.0,0.0,98,0.00,,,0.00,WUHU21623XXSP,2012-11-12 05:13:00,
2012-11-11 21:18:00,41.4,40.8,30.05,NNW,337,0.0,0.0,98,0.00,,,0.00,WUHU21623XXSP,2012-11-12 05:18:00,
2012-11-11 21:23:00,41.4,40.8,30.05,NNW,337,0.0,0.0,98,0.00,,,0.00,WUHU21623XXSP,2012-11-12 05:23:00,
2012-11-11 21:28:00,41.4,40.8,30.05,NNW,337,0.0,0.0,98,0.00,,,0.00,WUHU21623XXSP,2012-11-12 05:28:00,
2012-11-11 21:33:00,41.5,41.0,30.05,NNE,22,0.0,0.0,98,0.00,,,0.00,WUHU21623XXSP,2012-11-12 05:33:00,
2012-11-11 21:38:00,41.5,41.0,30.05,NNE,22,0.0,0.0,98,0.00,,,0.00,WUHU21623XXSP,2012-11-12 05:38:00,
2012-11-11 21:43:00,41.5,41.0,30.05,NNE,22,0.0,0.0,98,0.00,,,0.00,WUHU21623XXSP,2012-11-12 05:43:00,
2012-11-11 21:48:00,41.5,41.0,30.05,NNE,22,0.0,0.0,98,0.00,,,0.00,WUHU21623XXSP,2012-11-12 05:48:00,
2012-11-11 21:53:00,41.5,41.0,30.05,NNE,22,0.0,0.0,98,0.00,,,0.00,WUHU21623XXSP,2012-11-12 05:53:00,
2012-11-11 21:58:00,41.5,41.0,30.05,NNE,22,0.0,0.0,98,0.00,,,0.00,WUHU21623XXSP,2012-11-12 05:58:00,
2012-11-11 22:03:00,41.5,41.0,30.05,NNE,22,0.0,0.0,98,0.00,,,0.00,WUHU21623XXSP,2012-11-12 06:03:00,
2012-11-11 22:08:00,41.5,41.0,30.05,NNE,22,0.0,0.0,98,0.00,,,0.00,WUHU21623XXSP,2012-11-12 06:08:00,
2012-11-11 22:13:00,41.5,41.0,30.05,NNE,22,0.0,0.0,98,0.00,,,0.00,WUHU21623XXSP,2012-11-12 06:13:00,
2012-11-11 22:18:00,41.5,41.0,30.05,NNE,22,0.0,0.0,98,0.00,,,0.00,WUHU21623XXSP,2012-11-12 06:18:00,
2012-11-11 22:23:00,41.5,41.0,30.05,NNE,22,0.0,0.0,98,0.00,,,0.00,WUHU21623XXSP,2012-11-12 06:23:00,
2012-11-11 22:28:00,41.5,41.0,30.05,NNE,22,0.0,0.0,98,0.00,,,0.00,WUHU21623XXSP,2012-11-12 06:28:00,
2012-11-11 22:33:00,41.5,41.0,30.05,NNE,22,0.0,0.0,98,0.00,,,0.00,WUHU21623XXSP,2012-11-12 06:33:00,
2012-11-11 22:38:00,41.5,41.0,30.05,NNE,22,0.0,0.0,98,0.00,,,0.00,WUHU21623XXSP,2012-11-12 06:38:00,
2012-11-11 22:43:00,41.5,41.0,30.05,NNW,337,0.0,0.0,98,0.00,,,0.00,WUHU21623XXSP,2012-11-12 06:43:00,
2012-11-11 22:48:00,41.5,41.0,30.05,NNW,337,0.0,0.0,98,0.00,,,0.00,WUHU21623XXSP,2012-11-12 06:48:00,
2012-11-11 22:53:00,41.5,41.0,30.05,NNW,337,0.0,0.0,98,0.00,,,0.00,WUHU21623XXSP,2012-11-12 06:53:00,
2012-11-11 22:58:00,41.5,41.0,30.05,NNW,337,0.0,0.0,98,0.00,,,0.00,WUHU21623XXSP,2012-11-12 06:58:00,
2012-11-11 23:03:00,41.5,41.0,30.05,NNW,337,0.0,0.0,98,0.00,,,0.00,WUHU21623XXSP,2012-11-12 07:03:00,
2012-11-11 23:08:00,41.5,41.0,30.05,NNW,337,0.0,0.0,98,0.00,,,0.00,WUHU21623XXSP,2012-11-12 07:08:00,
2012-11-11 23:13:00,41.5,41.0,30.04,NNW,337,0.0,0.0,98,0.00,,,0.00,WUHU21623XXSP,2012-11-12 07:13:00,
2012-11-11 23:18:00,41.5,41.0,30.04,NNW,337,0.0,0.0,98,0.00,,,0.00,WUHU21623XXSP,2012-11-12 07:18:00,
2012-11-11 23:23:00,41.5,41.0,30.03,NNW,337,0.0,0.0,98,0.00,,,0.00,WUHU21623XXSP,2012-11-12 07:23:00,
2012-11-11 23:28:00,41.5,41.0,30.03,NNW,337,0.0,0.0,98,0.00,,,0.00,WUHU21623XXSP,2012-11-12 07:28:00,
2012-11-11 23:33:00,41.5,41.0,30.04,NNW,337,0.0,0.0,98,0.00,,,0.00,WUHU21623XXSP,2012-11-12 07:33:00,
2012-11-11 23:38:00,41.5,41.0,30.04,NNW,337,0.0,0.0,98,0.00,,,0.00,WUHU21623XXSP,2012-11-12 07:38:00,
2012-11-11 23:43:00,41.5,41.0,30.04,NNW,337,0.0,0.0,98,0.00,,,0.00,WUHU21623XXSP,2012-11-12 07:43:00,
2012-11-11 23:48:00,41.5,41.0,30.04,NNW,337,0.0,0.0,98,0.00,,,0.00,WUHU21623XXSP,2012-11-12 07:48:00,
2012-11-11 23:53:00,41.5,41.0,30.04,NNW,337,0.0,0.0,98,0.00,,,0.00,WUHU21623XXSP,2012-11-12 07:53:00,
2012-11-11 23:58:00,41.5,41.0,30.04,NNW,337,0.0,0.0,98,0.00,,,0.00,WUHU21623XXSP,2012-11-12 07:58:00,